Regional Weather Roundup
Issued by NWS

Home | Current Version | Previous Version | Graphics & Text | Print | Product List | Glossary On
Versions: 1 2 3 4 5 6 7 8 9 10 11 12 13 14 15 16 17 18 19 20 21 22 23 24 25 26 27
000
ASUS45 KPSR 172210
RWRAZ

ARIZONA HOURLY REGIONAL WEATHER ROUNDUP
NATIONAL WEATHER SERVICE PHOENIX AZ
300 PM MST WED JAN 17 2018

NOTE: FAIR INDICATES FEW OR NO CLOUDS BELOW 12,000 FEET WITH NO
SIGNIFICANT WEATHER AND/OR OBSTRUCTIONS TO VISIBILITY.

AZZ001>003-036-172300-
NORTHWEST ARIZONA

CITY           SKY/WX    TMP DP  RH WIND       PRES   REMARKS
BULLHEAD CITY  SUNNY     72  32  23 N20       30.15F
KINGMAN        SUNNY     65  31  28 N9        30.23F
$$

AZZ004>008-015-016-018-172300-
NORTH CENTRAL ARIZONA

CITY           SKY/WX    TMP DP  RH WIND       PRES   REMARKS
GRAND CANYON   SUNNY     53  22  29 NE9       30.32F
WILLIAMS       SUNNY     54  19  26 N12G18    30.29S
PRESCOTT       SUNNY     61  25  25 NW7       30.24F
FLAGSTAFF      SUNNY     49  19  30 E10       30.31S
PAYSON         SUNNY     57  19  23 SW8       30.22F
PAGE           SUNNY     51  18  27 NE5       30.32F
$$

AZZ009>014-017-172300-
NORTHEAST ARIZONA

CITY           SKY/WX    TMP DP  RH WIND       PRES   REMARKS
WINSLOW        SUNNY     53  17  24 NW5       30.29F
SAINT JOHNS    SUNNY     52  21  29 N7        30.27F
WINDOW ROCK    SUNNY     52  18  26 VRB3      30.27F
SHOW LOW       SUNNY     48  21  34 N9        30.30F
$$

AZZ540-542>544-546-548-172300-
GREATER PHOENIX AREA

CITY           SKY/WX    TMP DP  RH WIND       PRES   REMARKS
PHOENIX        SUNNY     70  23  17 MISG      30.12F
BUCKEYE        SUNNY     66  25  20 SE6       30.15F
GLENDALE       MOSUNNY   70  23  17 CALM      30.16F
LUKE AFB       SUNNY     69  24  18 CALM      30.12F
DEER VALLEY    SUNNY     68  24  19 S7        30.13F
SCOTTSDALE     SUNNY     69  26  20 SW3       30.14F
MESA-FALCON    MOSUNNY   70  25  18 S6        30.14F
MESA-GATEWAY   MOSUNNY   66  23  19 VRB5      30.15F
CHANDLER       SUNNY     68  21  17 NE5       30.14F
$$

AZZ539-553-172300-
SOUTHWEST MARICOPA COUNTY AND PINAL COUNTY

CITY           SKY/WX    TMP DP  RH WIND       PRES   REMARKS
CASA GRANDE    NOT AVBL
GILA BEND      MOSUNNY   70  20  15 NE8       30.12F
$$

AZZ503-504-507>509-172300-
SOUTHEAST ARIZONA

CITY           SKY/WX    TMP DP  RH WIND       PRES   REMARKS
TUCSON         SUNNY     69  19  15 CALM      30.15F
DAVIS-MONTHAN  SUNNY     72  22  15 CALM      30.12F
RYAN FIELD     SUNNY     68  21  17 E8        30.15
NOGALES        SUNNY     71  19  14 NE6       30.15F
SIERRA VISTA   SUNNY     58  17  20 E5        30.22F
DOUGLAS        SUNNY     57  19  22 NE5       30.22F
SAFFORD        SUNNY     52  15  23 SE6       30.25F
$$

AZZ532-172300-
SOUTHWEST ARIZONA

CITY           SKY/WX    TMP DP  RH WIND       PRES   REMARKS
YUMA           MOSUNNY   76  30  18 N6        30.14F
$$

CAZ041-043-047-048-061-525>527-560>570-172300-
SOUTHERN CALIFORNIA

CITY           SKY/WX    TMP DP  RH WIND       PRES   REMARKS
DOWNTOWN L.A.  SUNNY     77  52  41 CALM      30.09F
L.A. AIRPORT   MOSUNNY   68  57  68 W9        30.11F
SAN DIEGO      PTSUNNY   66  54  65 NW13      30.11F
BURBANK        SUNNY     78  36  21 CALM      30.11F
ONTARIO        MOSUNNY   79  35  20 W9        30.10F
RIVERSIDE      MOSUNNY   81  35  19 N6        30.10F
PALM SPRINGS   SUNNY     77  37  23 SE5       30.14F
EL CENTRO NAS  MOSUNNY   77  33  20 NE7       30.14F
IMPERIAL       SUNNY     77  36  22 VRB3      30.13F
BLYTHE         SUNNY     74  34  23 CALM      30.14F
NEEDLES        SUNNY     74  34  23 NE8       30.17F
$$

NVZ020-UTZ003-172300-
SOUTHERN NEVADA-UTAH

CITY           SKY/WX    TMP DP  RH WIND       PRES   REMARKS
LAS VEGAS      PTSUNNY   66  33  29 VRB3      30.22F
SALT LAKE CITY PTSUNNY   54  28  36 VRB5      30.34R
$$

NMZ009-TXZ055-172300-
NEW MEXICO-WEST TEXAS

CITY           SKY/WX    TMP DP  RH WIND       PRES   REMARKS
ALBUQUERQUE    PTSUNNY   41  15  35 CALM      30.30F
EL PASO        PTSUNNY   42  17  36 NE6       30.30F
$$


........................KEY........................
SKY/WX - SKY CONDITION/WEATHER
TMP    - TEMPERATURE IN FAHRENHEIT
DP     - DEW POINT IN FAHRENHEIT
RH     - RELATIVE HUMIDITY IN PERCENT
WIND   - DIRECTION AND SPEED IN MILES PER HOUR (MPH)
VRB    - VARIABLE WIND DIRECTION
PRES   - MEAN SEA LEVEL PRESSURE IN INCHES OF MERCURY
         F - FALLING PRESSURE   R - RISING PRESSURE
         S - STEADY PRESSURE
VSB    - VISIBILITY IN MILES
HX     - HEAT INDEX IN FAHRENHEIT
WCI    - WIND CHILL INDEX IN FAHRENHEIT
TC     - TEMPERATURE IN CELSIUS WHICH IS ALSO KNOWN AS
         TEMPERATURE IN CENTIGRADE
AFB    - AIR FORCE BASE
         LUKE AFB IS LUKE AIR FORCE BASE
         DAVIS-MONTHAN IS DAVIS-MONTHAN AIR FORCE BASE
NAS    - NAVAL AIR STATION
         EL CENTRO NAS IS EL CENTRO NAVAL AIR STATION
N/A    - NOT AVAILABLE





USA.gov is the U.S. government's official web portal to all federal, state and local government web resources and services.